This is the latest recevied weather packets stored in our database for station/object KC3UTO. If no packets are shown the sender has not sent any weather packets the latest 10 day(s).
| Time | Temp. | Humidity | Pressure | Rain* | Wind** | Luminosity | Snow |
|---|---|---|---|---|---|---|---|
| 1777557944 | 12.22° C | 85% | 1006.9 hPa | 0 mm | - | 225 W/m² | - |
| 1777557641 | 12.22° C | 87% | 1007 hPa | 0 mm | - | 266 W/m² | - |
| 1777557337 | 12.22° C | 88% | 1006.6 hPa | 0 mm | - | 351 W/m² | - |
| 1777557034 | 11.67° C | 90% | 1006.7 hPa | 0 mm | - | 327 W/m² | - |
| 1777556729 | 11.67° C | 91% | 1006.8 hPa | 0 mm | - | 226 W/m² | - |
| 1777556426 | 11.11° C | 92% | 1006.8 hPa | 0 mm | - | 186 W/m² | - |
| 1777556126 | 11.11° C | 94% | 1006.8 hPa | 0 mm | - | 212 W/m² | - |
| 1777555822 | 11.11° C | 95% | 1006.9 hPa | 0 mm | - | 177 W/m² | - |
| 1777555517 | 10.56° C | 96% | 1007 hPa | 0 mm | - | 171 W/m² | - |
| 1777555214 | 11.11° C | 97% | 1006.9 hPa | 0 mm | - | 183 W/m² | - |
| 1777554911 | 10.56° C | 97% | 1006.9 hPa | 0 mm | - | 196 W/m² | - |
| 1777554608 | 10.56° C | 97% | 1006.8 hPa | 0 mm | - | 103 W/m² | - |
| 1777554304 | 10° C | 98% | 1007.2 hPa | 0 mm | - | 87 W/m² | - |
| 1777554002 | 10° C | 98% | 1007.3 hPa | 0 mm | - | 76 W/m² | - |
| 1777553698 | 10° C | 98% | 1007.4 hPa | 0 mm | - | 76 W/m² | - |
| 1777553395 | 10° C | 98% | 1007.2 hPa | 0 mm | - | 70 W/m² | - |
| 1777553091 | 10° C | 98% | 1007.1 hPa | 0 mm | - | 70 W/m² | - |
| 1777552791 | 10° C | 98% | 1007.2 hPa | 0 mm | - | 69 W/m² | - |
| 1777552487 | 10° C | 98% | 1007.1 hPa | 0 mm | - | 80 W/m² | - |
| 1777552183 | 10° C | 99% | 1007.1 hPa | 0 mm | - | 61 W/m² | - |
| 1777551880 | 9.44° C | 99% | 1006.8 hPa | 0 mm | - | 55 W/m² | - |
| 1777551578 | 9.44° C | 99% | 1007 hPa | 0 mm | - | 53 W/m² | - |
| 1777551275 | 9.44° C | 99% | 1006.9 hPa | 0 mm | - | 60 W/m² | - |
| 1777550972 | 9.44° C | 99% | 1006.9 hPa | 0 mm | - | 101 W/m² | - |
| 1777550669 | 9.44° C | 99% | 1007 hPa | 0 mm | - | 78 W/m² | - |
* Rain latest hour (hover to see other rain measurements)
** Current wind speed in m/s (hover to see current wind gust speed)